Location: Unnamed
(23.5608°S, 46.6833°W)
Time: 06:12:53
(UTC-03:00)

IRIDIUM 148 - Visible Passes

Search period start: 02 December 2023 00:00
Search period end: 12 December 2023 00:00
Orbit: 776 x 779 km, 86.4° (Epoch: 01 December)

Date Brightness Start Highest point End Pass type
(mag) Time Alt. Az. Time Alt. Az. Time Alt. Az.
03 Dec ? 04:16:08 10° NNE 04:21:15 60° E 04:26:26 10° S visible
04 Dec ? 03:43:27 10° NE 03:47:53 29° E 03:52:21 10° SSE visible
05 Dec ? 03:12:01 10° ENE 03:14:36 14° E 03:17:12 10° SE visible
06 Dec ? 04:16:05 10° N 04:21:18 87° W 04:26:36 10° S visible
07 Dec ? 03:42:55 10° NNE 03:47:51 44° E 03:52:51 10° SSE visible
08 Dec ? 03:10:36 10° NE 03:14:32 22° E 03:18:28 10° SE visible
09 Dec ? 04:16:16 10° NNW 04:21:22 56° W 04:26:33 10° S visible
10 Dec ? 03:42:42 10° N 03:47:53 70° E 03:53:07 10° S visible
11 Dec ? 03:09:50 10° NNE 03:14:29 33° E 03:19:10 10° SSE visible
